• In Switzerland
  • List of Countries
  • For 7 days
  • Water Temperature
  • Satellite Maps
  • Weather Map
  • Weather Widgets
  • user-avatar
    Login

    Hourly Weather Lunino

    Today, 19 September, Wednesday

    Time Temperature Precipitation Wind Pressure Humidity
    00:00 +15°C° 0 mm 2 mps 751 mmHg 86%
    01:00 +15°C° 0 mm 2 mps 751 mmHg 87%
    02:00 +14°C° 0 mm 2 mps 751 mmHg 90%
    03:00 +14°C° 0 mm 2 mps 751 mmHg 91%
    04:00 +14°C° 0 mm 2 mps 751 mmHg 92%
    05:00 +14°C° 0 mm 2 mps 751 mmHg 92%
    06:00 +15°C° 0 mm 2 mps 751 mmHg 90%
    07:00 +16°C° 0 mm 3 mps 750 mmHg 87%
    08:00 +17°C° 0 mm 3 mps 751 mmHg 82%
    09:00 +19°C° 0 mm 3 mps 751 mmHg 76%
    10:00 +21°C° 0 mm 4 mps 751 mmHg 71%
    11:00 +22°C° 0 mm 4 mps 751 mmHg 65%
    12:00 +23°C° 0 mm 4 mps 750 mmHg 62%
    13:00 +25°C° 0 mm 4 mps 750 mmHg 58%
    14:00 +27°C° 0 mm 4 mps 750 mmHg 55%
    15:00 +26°C° 0 mm 4 mps 750 mmHg 58%
    16:00 +25°C° 0 mm 3 mps 749 mmHg 62%
    17:00 +25°C° 0 mm 3 mps 749 mmHg 66%
    18:00 +22°C° 0 mm 3 mps 749 mmHg 71%
    19:00 +20°C° 0 mm 3 mps 750 mmHg 75%
    20:00 +19°C° 0 mm 3 mps 750 mmHg 80%
    21:00 +18°C° 0 mm 3 mps 750 mmHg 81%
    22:00 +18°C° 0 mm 3 mps 750 mmHg 82%
    23:00 +17°C° 0 mm 3 mps 750 mmHg 83%

    Tomorrow, 20 September, Thursday

    Time Temperature Precipitation Wind Pressure Humidity
    00:00 +17°C° 0 mm 2 mps 750 mmHg 84%
    01:00 +17°C° 0 mm 2 mps 750 mmHg 84%
    02:00 +16°C° 0 mm 2 mps 750 mmHg 85%
    03:00 +16°C° 0 mm 2 mps 750 mmHg 86%
    04:00 +16°C° 0 mm 2 mps 750 mmHg 87%
    05:00 +15°C° 0 mm 2 mps 750 mmHg 88%
    06:00 +16°C° 0 mm 2 mps 751 mmHg 85%
    07:00 +18°C° 0 mm 1 mps 751 mmHg 82%
    08:00 +19°C° 0 mm 1 mps 751 mmHg 80%
    09:00 +20°C° 0 mm 2 mps 751 mmHg 74%
    10:00 +23°C° 0 mm 2 mps 751 mmHg 68%
    11:00 +25°C° 0 mm 2 mps 751 mmHg 62%
    12:00 +26°C° 0 mm 2 mps 751 mmHg 60%
    13:00 +26°C° 0 mm 3 mps 751 mmHg 58%
    14:00 +27°C° 0 mm 3 mps 751 mmHg 56%
    15:00 +27°C° 0 mm 2 mps 751 mmHg 60%
    16:00 +26°C° 0 mm 2 mps 750 mmHg 63%
    17:00 +25°C° 0 mm 2 mps 750 mmHg 67%
    18:00 +24°C° 0 mm 1 mps 750 mmHg 72%
    19:00 +22°C° 0 mm 1 mps 750 mmHg 76%
    20:00 +21°C° 0 mm 1 mps 750 mmHg 81%
    21:00 +20°C° 0 mm 1 mps 750 mmHg 82%
    22:00 +20°C° 0 mm 1 mps 751 mmHg 83%
    23:00 +19°C° 0 mm 1 mps 751 mmHg 85%

    Day after tomorrow, 21 September, Friday

    Time Temperature Precipitation Wind Pressure Humidity
    00:00 +19°C° 0 mm 1 mps 751 mmHg 85%
    01:00 +19°C° 0 mm 1 mps 751 mmHg 85%
    02:00 +18°C° 0 mm 1 mps 751 mmHg 86%
    03:00 +17°C° 0 mm 2 mps 751 mmHg 86%
    04:00 +17°C° 0 mm 2 mps 751 mmHg 86%
    05:00 +16°C° 0 mm 2 mps 750 mmHg 87%
    06:00 +17°C° 0 mm 2 mps 751 mmHg 84%
    07:00 +18°C° 0 mm 2 mps 751 mmHg 81%
    08:00 +19°C° 0 mm 2 mps 751 mmHg 77%
    09:00 +20°C° 0 mm 3 mps 751 mmHg 72%
    10:00 +22°C° 0 mm 3 mps 751 mmHg 66%
    11:00 +25°C° 0 mm 3 mps 750 mmHg 60%
    12:00 +25°C° 0 mm 4 mps 750 mmHg 57%
    13:00 +26°C° 0 mm 4 mps 750 mmHg 53%
    14:00 +26°C° 0 mm 4 mps 749 mmHg 49%
    15:00 +26°C° 0 mm 4 mps 749 mmHg 54%
    16:00 +25°C° 0 mm 3 mps 748 mmHg 58%
    17:00 +24°C° 0 mm 3 mps 748 mmHg 62%
    18:00 +22°C° 0 mm 3 mps 748 mmHg 64%
    19:00 +21°C° 0 mm 4 mps 747 mmHg 67%
    20:00 +20°C° 0 mm 4 mps 747 mmHg 69%
    21:00 +19°C° 0 mm 4 mps 747 mmHg 68%
    22:00 +19°C° 0 mm 5 mps 747 mmHg 68%
    23:00 +19°C° 0 mm 5 mps 746 mmHg 68%

    22 September, Saturday

    Time Temperature Precipitation Wind Pressure Humidity
    00:00 +19°C° 0 mm 5 mps 746 mmHg 69%
    01:00 +17°C° 0 mm 5 mps 745 mmHg 70%
    02:00 +17°C° 0 mm 5 mps 745 mmHg 71%
    03:00 +17°C° 0 mm 5 mps 745 mmHg 71%
    04:00 +16°C° 0 mm 5 mps 745 mmHg 72%
    05:00 +16°C° 0 mm 5 mps 745 mmHg 73%
    06:00 +16°C° 0.1 mm 5 mps 745 mmHg 75%
    07:00 +17°C° 0.1 mm 4 mps 745 mmHg 78%
    08:00 +17°C° 0.1 mm 4 mps 745 mmHg 80%
    09:00 +15°C° 0.5 mm 4 mps 746 mmHg 82%
    10:00 +15°C° 0.5 mm 4 mps 746 mmHg 83%
    11:00 +14°C° 0.5 mm 4 mps 747 mmHg 85%
    12:00 +14°C° 0.1 mm 4 mps 747 mmHg 81%
    13:00 +14°C° 0.1 mm 4 mps 747 mmHg 77%
    14:00 +14°C° 0.1 mm 5 mps 747 mmHg 73%
    15:00 +13°C° 0.1 mm 4 mps 747 mmHg 74%
    16:00 +13°C° 0.1 mm 4 mps 747 mmHg 76%
    17:00 +12°C° 0.1 mm 4 mps 747 mmHg 77%
    18:00 +11°C° 0.2 mm 4 mps 747 mmHg 79%
    19:00 +11°C° 0.2 mm 4 mps 748 mmHg 82%
    20:00 +10°C° 0.2 mm 5 mps 748 mmHg 84%
    21:00 +10°C° 0 mm 4 mps 748 mmHg 86%
    22:00 +8°C° 0 mm 4 mps 747 mmHg 87%
    23:00 +8°C° 0 mm 4 mps 747 mmHg 89%

    23 September, Sunday

    Time Temperature Precipitation Wind Pressure Humidity
    00:00 +8°C° 0 mm 4 mps 747 mmHg 90%
    01:00 +8°C° 0 mm 3 mps 747 mmHg 91%
    02:00 +8°C° 0 mm 3 mps 747 mmHg 92%
    03:00 +8°C° 0 mm 3 mps 747 mmHg 91%
    04:00 +8°C° 0 mm 3 mps 746 mmHg 90%
    05:00 +7°C° 0 mm 3 mps 746 mmHg 89%
    06:00 +7°C° 0 mm 4 mps 746 mmHg 86%
    07:00 +8°C° 0 mm 4 mps 746 mmHg 83%
    08:00 +9°C° 0 mm 5 mps 746 mmHg 79%
    09:00 +10°C° 0 mm 5 mps 747 mmHg 73%
    10:00 +11°C° 0 mm 6 mps 747 mmHg 66%
    11:00 +14°C° 0 mm 6 mps 747 mmHg 60%
    12:00 +14°C° 0 mm 6 mps 747 mmHg 58%
    13:00 +14°C° 0 mm 7 mps 747 mmHg 56%
    14:00 +15°C° 0 mm 7 mps 746 mmHg 54%
    15:00 +14°C° 0 mm 6 mps 746 mmHg 56%
    16:00 +14°C° 0 mm 5 mps 746 mmHg 59%
    17:00 +13°C° 0 mm 3 mps 746 mmHg 62%
    18:00 +12°C° 0 mm 3 mps 746 mmHg 65%
    19:00 +11°C° 0 mm 3 mps 746 mmHg 68%
    20:00 +9°C° 0 mm 3 mps 746 mmHg 71%
    21:00 +9°C° 0 mm 3 mps 746 mmHg 72%
    22:00 +9°C° 0 mm 3 mps 745 mmHg 72%
    23:00 +8°C° 0 mm 2 mps 745 mmHg 73%

    24 September, Monday

    Time Temperature Precipitation Wind Pressure Humidity
    00:00 +9°C° 0 mm 3 mps 745 mmHg 71%
    01:00 +9°C° 0 mm 3 mps 744 mmHg 69%
    02:00 +9°C° 0 mm 3 mps 744 mmHg 67%
    03:00 +8°C° 0.4 mm 4 mps 743 mmHg 73%
    04:00 +8°C° 0.4 mm 4 mps 742 mmHg 80%
    05:00 +8°C° 0.4 mm 5 mps 741 mmHg 86%
    06:00 +8°C° 0.8 mm 6 mps 739 mmHg 87%
    07:00 +8°C° 0.8 mm 7 mps 738 mmHg 88%
    08:00 +7°C° 0.8 mm 8 mps 737 mmHg 90%
    09:00 +9°C° 1.7 mm 8 mps 736 mmHg 89%
    10:00 +9°C° 1.7 mm 8 mps 734 mmHg 89%
    11:00 +8°C° 1.7 mm 9 mps 733 mmHg 88%
    12:00 +9°C° 1.6 mm 8 mps 732 mmHg 90%
    13:00 +10°C° 1.6 mm 7 mps 731 mmHg 91%
    14:00 +10°C° 1.6 mm 7 mps 730 mmHg 92%
    15:00 +11°C° 1.2 mm 7 mps 730 mmHg 92%
    16:00 +11°C° 1.2 mm 6 mps 729 mmHg 92%
    17:00 +13°C° 1.2 mm 6 mps 728 mmHg 93%
    18:00 +11°C° 0.5 mm 6 mps 727 mmHg 92%
    19:00 +11°C° 0.5 mm 6 mps 726 mmHg 91%
    20:00 +10°C° 0.5 mm 6 mps 726 mmHg 90%
    21:00 +10°C° 0.4 mm 5 mps 725 mmHg 91%
    22:00 +9°C° 0.4 mm 5 mps 725 mmHg 91%
    23:00 +9°C° 0.4 mm 5 mps 725 mmHg 92%
    Show more